sat.trackr.live / text

‹ back to catalog

FLOCK 4BE-23

NORAD 60490 · 2024-149Y

PAYLOAD ACTIVE UNKNOWN

§ Identity

Operator
Country
US
Launch date
2024-08-16
Launch site
AFWTR
Launch vehicle
Mass (kg)
RCS (m²)

Purposes: earth_obs

External: N2YO · Heavens-Above · Gunter

§ Orbital elements

Epoch: 2026-09-19T04:48:03.804192Z

Period
93.49 min
Inclination
97.3719°
Eccentricity
0.0002087
Mean motion
15.40258592 rev/d
Perigee alt
443.9 km
Apogee alt
446.8 km
Semi-major
6,823.5 km
B*
5.3294e-4
RAAN
345.1813°
Arg perigee
299.8722°
Mean anomaly
60.2317°
Rev number
11,665

§ Raw data

FLOCK 4BE-231 60490U 24149Y   26262.20004403  .00021394  00000+0  53294-3 0  99942 60490  97.3719 345.1813 0002087 299.8722  60.2317 15.40258592116657

JSON: /api/v1/satellites/60490 · /tle

For live sub-satellite position, see the globe view (requires WebGL).

§ Visibility from observer

Set your observer location to see the next 7 days of passes ≥ 10°. The values pass through the URL so the page stays shareable.

No JS? Fill the form by hand. The geolocation button needs JavaScript.